Flag for U.S.A. Weather past 2 weeks in San Jose, California, U.S.A.

Now
64 °F

Passing clouds.


Feels Like: 64 °F
Forecast: 62 / 81 °F
Wind: 6 mph from West

Location: San Jose International Airport

Current Time: Jul 3, 2015 at 10:23:12 PM

Latest Report: Jul 3, 2015 at 9:53 PM


Visibility: 10 mi

Pressure: 29.89 "Hg

Humidity: 84%

Dew point: 59 °F

Location of San JoseLocation

Historic Weather in San Jose — Graph

°F

San Jose temperature yesterday

Maximum temperature yesterday: 78 °F (at 12:53 PM)
Minimum temperature yesterday: 64 °F (at 6:53 AM)
Average temperature yesterday: 70 °F

Past Weeks' High & Low Weather Summary

 TemperatureHumidityPressure
High92 °F (Jun 30, 3:53 PM)90% (Jun 21, 1:53 AM)30.06 "Hg (Jun 21, 1:53 AM)
Low54 °F (Jun 19, 5:53 AM)25% (Jun 30, 3:53 PM)29.78 "Hg (Jun 30, 5:53 PM)
Average68 °F65%29.93 "Hg
* Reported Jun 18 8:53 PM — Jul 3 8:53 PM, San Jose, Weather by CustomWeather, © 2015

Note: Actual official high and low records may vary slightly from our data, if they occured in-between our weather recording intervals... More about our weather records

Advertising

San Jose weather history for previous 24 hours

 ConditionsComfort  
Time TempWeatherWind HumidityBarometerVisibility
8:53 PM
Fri, Jul 3
66 °FPassing clouds.8 mph78%29.88 "Hg10 mi
7:53 PM69 °FPassing clouds.13 mph70%29.87 "Hg10 mi
6:53 PM72 °FPassing clouds.14 mph64%29.85 "Hg10 mi
5:53 PM75 °FPassing clouds.15 mph60%29.85 "Hg10 mi
4:53 PM79 °FPassing clouds.14 mph52%29.85 "Hg10 mi
3:53 PM80 °FPassing clouds.13 mph52%29.86 "Hg10 mi
2:53 PM80 °FPassing clouds.12 mph52%29.88 "Hg10 mi
1:53 PM79 °FPassing clouds.10 mph54%29.89 "Hg10 mi
12:53 PM78 °FPassing clouds.9 mph58%29.91 "Hg10 mi
11:53 AM75 °FPassing clouds.7 mph60%29.93 "Hg10 mi
10:53 AM74 °FPassing clouds.6 mph60%29.93 "Hg10 mi
9:53 AM70 °FPassing clouds.5 mph68%29.94 "Hg10 mi
8:53 AM67 °FPassing clouds.3 mph76%29.95 "Hg10 mi
7:53 AM65 °FScattered clouds.5 mph81%29.95 "Hg10 mi
6:53 AM63 °FBroken clouds.6 mph87%29.95 "Hg10 mi
5:53 AM63 °FPartly cloudy.8 mph87%29.93 "Hg10 mi
4:53 AM64 °FClear.No wind75%29.91 "Hg10 mi
3:53 AM63 °FClear.5 mph78%29.90 "Hg10 mi
2:53 AM63 °FClear.No wind87%29.91 "Hg10 mi
1:53 AM64 °FClear.No wind81%29.93 "Hg10 mi
12:53 AM64 °FClear.3 mph81%29.94 "Hg10 mi
11:53 PM
Thu, Jul 2
64 °FPassing clouds.5 mph81%29.95 "Hg10 mi
10:53 PM65 °FPartly cloudy.5 mph78%29.94 "Hg10 mi
Weather by CustomWeather, © 2015

See weather overviewHow to use our weather pages